DW3201 Weather Reports


time (UTC)temp
F
wind
direction
speed
knots
gust
knots
rain 1hr
in
rain 24hr
in
rain mn
in
humidity
%
barometer
mb
20260506181554 52 281 7.0 12.2 0.00 0.00 0.00 38 1012.3
20260506174553 52 288 1.7 9.6 0.00 0.00 0.00 39 1012.5
20260506173111 52 283 4.3 9.6 0.00 0.00 0.00 38 1012.5
20260506171600 51 290 5.2 10.4 0.00 0.00 0.00 40 1012.7
20260506170052 51 270 4.3 13.0 0.00 0.00 0.00 38 1012.7
20260506164554 52 285 4.3 9.6 0.00 0.00 0.00 39 1012.8
20260506163058 52 292 3.5 9.6 0.00 0.00 0.00 40 1012.8
20260506161557 51 284 2.6 11.3 0.00 0.00 0.00 42 1012.7
20260506160107 51 288 1.7 9.6 0.00 0.00 0.00 40 1012.7
20260506154555 51 240 3.5 7.0 0.00 0.00 0.00 41 1012.6
20260506153052 51 295 4.3 10.4 0.00 0.00 0.00 39 1012.6
20260506151554 51 286 5.2 10.4 0.00 0.00 0.00 40 1012.6
20260506150055 51 268 2.6 8.7 0.00 0.00 0.00 41 1012.5
20260506144555 50 271 1.7 7.0 0.00 0.00 0.00 44 1012.7
20260506143057 49 245 3.5 8.7 0.00 0.00 0.00 43 1012.5
20260506141552 49 251 4.3 8.7 0.00 0.00 0.00 43 1012.5
20260506140051 50 287 1.7 4.3 0.00 0.00 0.00 47 1012.5
20260506134616 49 278 0.9 6.1 0.00 0.00 0.00 49 1012.4
20260506133056 48 285 0.9 4.3 0.00 0.00 0.00 50 1012.3
20260506131609 49 298 0.9 1.7 0.00 0.00 0.00 47 1012.2
20260506130053 47 266 0.0 1.7 0.00 0.00 0.00 58 1012.2
20260506124552 45 278 0.9 2.6 0.00 0.00 0.00 55 1012.1
20260506123055 44 277 0.9 3.5 0.00 0.00 0.00 58 1011.8
20260506121601 43 271 0.0 0.9 0.00 0.00 0.00 64 1011.7
20260506120053 40 271 0.0 0.9 0.00 0.00 0.00 71 1011.7
20260506114553 38 0 0.0 0.9 0.00 0.00 0.00 82 1011.7
20260506113054 36 0 0.0 0.0 0.00 0.00 0.00 84 1011.5
20260506111611 34 252 0.0 0.9 0.00 0.00 0.00 87 1011.5
20260506110057 32 0 0.0 0.9 0.00 0.00 0.00 89 1011.4
20260506104551 32 0 0.0 0.0 0.00 0.00 0.00 90 1011.0
20260506103052 33 0 0.0 0.9 0.00 0.00 0.00 89 1010.9
20260506101554 33 0 0.0 0.0 0.00 0.00 0.00 89 1010.8
20260506100054 33 0 0.0 0.9 0.00 0.00 0.00 89 1010.9
20260506094556 34 286 0.0 0.9 0.00 0.00 0.00 86 1010.8
20260506093058 34 0 0.0 0.0 0.00 0.00 0.00 86 1011.1
20260506091556 35 0 0.0 0.0 0.00 0.00 0.00 85 1011.0
20260506090053 34 0 0.0 0.0 0.00 0.00 0.00 77 1011.0
20260506084550 34 0 0.0 0.0 0.00 0.00 0.00 84 1011.0
20260506083114 35 0 0.0 0.9 0.00 0.00 0.00 86 1010.8
20260506081554 36 0 0.0 0.0 0.00 0.00 0.00 85 1010.6
20260506073056 37 0 0.0 0.0 0.00 0.00 0.00 77 1010.4
20260506071557 38 0 0.0 0.0 0.00 0.00 0.00 79 1010.3
20260506070112 39 0 0.0 0.0 0.00 0.00 0.00 75 1010.4
20260506061601 40 0 0.0 0.9 0.00 0.00 0.00 60 1010.6
20260506050109 43 0 0.0 0.0 0.00 0.00 0.00 51 1010.7
20260506044601 43 0 0.0 0.0 0.00 0.00 0.00 50 1010.7
20260506043057 44 0 0.0 0.0 0.00 0.00 0.00 47 1010.7
20260506041602 45 0 0.0 0.9 0.00 0.00 0.00 45 1010.6
20260506040100 46 0 0.0 1.7 0.00 0.00 0.00 45 1010.4
20260506034559 46 0 0.0 2.6 0.00 0.00 0.00 45 1010.2
20260506033054 46 0 0.0 1.7 0.00 0.00 0.00 45 1010.2
20260506031600 47 0 0.0 1.7 0.00 0.00 0.00 45 1010.1
20260506030054 47 0 0.0 3.5 0.00 0.00 0.00 47 1010.0
20260506024600 47 288 0.0 0.9 0.00 0.00 0.00 48 1009.8
20260506023055 47 0 0.0 0.0 0.00 0.00 0.00 51 1009.7
20260506021551 47 0 0.0 0.0 0.00 0.00 0.00 49 1009.4
20260506020107 48 0 0.0 0.0 0.00 0.00 0.00 45 1009.2
20260506014608 49 0 0.0 0.0 0.00 0.00 0.00 43 1009.0
20260506013055 51 0 0.0 0.0 0.00 0.00 0.00 40 1008.7
20260506011617 52 0 0.0 0.9 0.00 0.00 0.00 38 1008.4
20260506010054 52 243 0.9 5.2 0.00 0.00 0.00 36 1008.3
20260506004603 53 283 0.0 4.3 0.00 0.00 0.00 36 1008.0
20260506003052 54 308 0.0 5.2 0.00 0.00 0.00 34 1007.8
20260506001556 54 0 0.9 4.3 0.00 0.00 0.00 33 1007.6
20260506000117 55 255 0.9 3.5 0.00 0.00 0.00 33 1007.5
20260505234554 55 292 0.9 4.3 0.00 0.00 0.00 32 1007.4
20260505233057 55 252 1.7 8.7 0.00 0.00 0.00 32 1007.3
20260505231559 56 0 0.9 7.8 0.00 0.00 0.00 30 1007.3
20260505230106 56 292 0.9 6.1 0.00 0.00 0.00 32 1007.3
20260505224557 57 0 2.6 7.8 0.00 0.00 0.00 29 1007.4
20260505223054 56 284 2.6 6.1 0.00 0.00 0.00 29 1007.4
20260505221559 56 281 4.3 7.8 0.00 0.00 0.00 28 1007.2
20260505220054 56 285 4.3 11.3 0.00 0.00 0.00 29 1007.1
20260505214553 56 288 7.0 15.6 0.00 0.00 0.00 28 1007.2
20260505213056 56 302 4.3 10.4 0.00 0.00 0.00 30 1007.3
20260505211555 57 278 1.7 9.6 0.00 0.00 0.00 29 1007.2
20260505210052 56 292 1.7 9.6 0.00 0.00 0.00 29 1007.2
20260505204600 57 290 1.7 10.4 0.00 0.00 0.00 30 1007.3
20260505203100 57 0 3.5 9.6 0.00 0.00 0.00 30 1007.4
20260505201553 56 285 4.3 13.9 0.00 0.00 0.00 32 1007.7
20260505200054 56 286 4.3 13.0 0.00 0.00 0.00 32 1007.7
20260505194609 55 291 6.1 16.5 0.00 0.00 0.00 32 1008.0
20260505193052 55 266 6.1 11.3 0.00 0.00 0.00 33 1008.1
20260505191606 55 207 3.5 13.0 0.00 0.00 0.00 33 1008.3
20260505190054 54 285 6.1 12.2 0.00 0.00 0.00 33 1008.3
20260505184553 54 295 5.2 12.2 0.00 0.00 0.00 33 1008.2
20260505183055 54 261 7.0 14.8 0.00 0.00 0.00 33 1007.9